EJA1044 KMHT-CYOW

Flight info

Callsign EJA1044
Flight time 0h 41m
Altitude 38000
Route BUGSY DEANS3
Aircraft C700/M-SBDGHM1RWXY/LB2

Departure

Time 2026-04-20 01:20
Airport Manchester-Boston Regional Airport (KMHT)

Arrival

Time 2026-04-20 02:02
Airport Ottawa Macdonald-Cartier International Airport (CYOW)
Time Latitude Longitude Altitude Speed Heading
2026-04-20 01:05 42.93269 -71.43113 238 ft 0 kts 155°
2026-04-20 01:16 42.93236 -71.43147 239 ft 12 kts 244°
2026-04-20 01:16 42.93178 -71.43187 241 ft 12 kts 173°
2026-04-20 01:16 42.93074 -71.43156 245 ft 18 kts 157°
2026-04-20 01:16 42.92937 -71.43064 246 ft 25 kts 154°
2026-04-20 01:17 42.92814 -71.43004 247 ft 16 kts 185°
2026-04-20 01:17 42.92752 -71.43112 248 ft 16 kts 246°
2026-04-20 01:17 42.92677 -71.43230 247 ft 16 kts 172°
2026-04-20 01:17 42.92565 -71.43164 248 ft 19 kts 156°
2026-04-20 01:18 42.92431 -71.43082 252 ft 23 kts 155°
2026-04-20 01:18 42.92280 -71.42993 259 ft 24 kts 157°
2026-04-20 01:18 42.92121 -71.42909 266 ft 24 kts 171°
2026-04-20 01:18 42.92005 -71.42908 267 ft 26 kts 183°
2026-04-20 01:19 42.91868 -71.42881 269 ft 15 kts 116°
2026-04-20 01:19 42.91900 -71.42738 269 ft 18 kts 69°
2026-04-20 01:19 42.91967 -71.42650 269 ft 0 kts 336°
2026-04-20 01:20 42.92005 -71.42670 268 ft 21 kts 338°
2026-04-20 01:20 42.92417 -71.42911 257 ft 110 kts 336°
2026-04-20 01:20 42.93338 -71.43474 417 ft 168 kts 336°
2026-04-20 01:20 42.94557 -71.44124 944 ft 209 kts 336°
2026-04-20 01:21 42.95879 -71.44842 2402 ft 201 kts 335°
2026-04-20 01:21 42.97112 -71.45651 3893 ft 200 kts 317°
2026-04-20 01:21 42.97986 -71.47267 5047 ft 222 kts 303°
2026-04-20 01:21 42.98939 -71.48953 6578 ft 228 kts 310°
2026-04-20 01:22 43.00048 -71.50563 8057 ft 236 kts 311°
2026-04-20 01:22 43.01201 -71.52210 9710 ft 243 kts 309°
2026-04-20 01:22 43.02390 -71.53957 11067 ft 264 kts 307°
2026-04-20 01:22 43.03702 -71.55897 12298 ft 290 kts 306°
2026-04-20 01:23 43.05112 -71.57954 13948 ft 304 kts 305°
2026-04-20 01:23 43.06586 -71.60113 15357 ft 317 kts 302°
2026-04-20 01:23 43.08116 -71.62363 16776 ft 329 kts 299°
2026-04-20 01:23 43.09701 -71.64704 18027 ft 344 kts 297°
2026-04-20 01:24 43.11346 -71.67111 19320 ft 349 kts 296°
2026-04-20 01:24 43.13025 -71.69570 20398 ft 357 kts 296°
2026-04-20 01:24 43.14707 -71.72052 21431 ft 364 kts 296°
2026-04-20 01:24 43.16446 -71.74619 22479 ft 371 kts 295°
2026-04-20 01:25 43.18221 -71.77234 23534 ft 378 kts 296°
2026-04-20 01:25 43.20026 -71.79897 24419 ft 384 kts 295°
2026-04-20 01:25 43.21857 -71.82598 25333 ft 389 kts 296°
2026-04-20 01:25 43.23709 -71.85338 26212 ft 395 kts 295°
2026-04-20 01:26 43.25588 -71.88119 27101 ft 400 kts 295°
2026-04-20 01:26 43.27489 -71.90937 27977 ft 405 kts 296°
2026-04-20 01:26 43.29415 -71.93798 28861 ft 411 kts 296°
2026-04-20 01:26 43.31369 -71.96699 29748 ft 417 kts 296°
2026-04-20 01:27 43.33351 -71.99643 30535 ft 422 kts 296°
2026-04-20 01:27 43.35357 -72.02627 31198 ft 428 kts 296°
2026-04-20 01:27 43.37390 -72.05654 31843 ft 434 kts 297°
2026-04-20 01:27 43.39449 -72.08729 32474 ft 440 kts 297°
2026-04-20 01:28 43.41534 -72.11840 33106 ft 446 kts 298°
2026-04-20 01:28 43.43640 -72.14976 33934 ft 446 kts 298°
2026-04-20 01:28 43.45742 -72.18111 34648 ft 446 kts 298°
2026-04-20 01:28 43.47842 -72.21265 35324 ft 446 kts 299°
2026-04-20 01:29 43.49941 -72.24419 36009 ft 448 kts 300°
2026-04-20 01:29 43.52050 -72.27579 36646 ft 448 kts 300°
2026-04-20 01:29 43.54162 -72.30748 37267 ft 449 kts 301°
2026-04-20 01:29 43.56272 -72.33925 37860 ft 449 kts 301°
2026-04-20 01:30 43.58397 -72.37138 37995 ft 461 kts 301°
2026-04-20 01:30 43.60589 -72.40460 38002 ft 474 kts 302°
2026-04-20 01:30 43.62849 -72.43862 38007 ft 487 kts 302°
2026-04-20 01:30 43.65155 -72.47330 38009 ft 494 kts 302°
2026-04-20 01:31 43.69791 -72.54346 38006 ft 494 kts 302°
2026-04-20 01:31 43.74421 -72.61377 38009 ft 494 kts 302°
2026-04-20 01:32 43.79036 -72.68397 38003 ft 492 kts 302°
2026-04-20 01:32 43.83607 -72.75374 38015 ft 492 kts 302°
2026-04-20 01:33 43.88209 -72.82408 38011 ft 492 kts 302°
2026-04-20 01:33 43.92801 -72.89452 38007 ft 492 kts 302°
2026-04-20 01:34 43.97385 -72.96493 38011 ft 492 kts 302°
2026-04-20 01:34 44.01961 -73.03546 38015 ft 491 kts 302°
2026-04-20 01:35 44.06533 -73.10607 38012 ft 492 kts 302°
2026-04-20 01:35 44.11102 -73.17682 38008 ft 492 kts 302°
2026-04-20 01:36 44.15670 -73.24774 38013 ft 492 kts 302°
2026-04-20 01:36 44.20243 -73.31890 38009 ft 493 kts 302°
2026-04-20 01:37 44.24810 -73.39013 37751 ft 490 kts 303°
2026-04-20 01:37 44.27064 -73.42526 37107 ft 481 kts 302°
2026-04-20 01:37 44.29270 -73.45973 36453 ft 472 kts 302°
2026-04-20 01:38 44.31434 -73.49372 35832 ft 465 kts 302°
2026-04-20 01:38 44.33574 -73.52740 35222 ft 464 kts 302°
2026-04-20 01:38 44.35724 -73.56124 34634 ft 468 kts 302°
2026-04-20 01:38 44.37896 -73.59540 34055 ft 472 kts 303°
2026-04-20 01:39 44.40082 -73.62972 33427 ft 472 kts 303°
2026-04-20 01:39 44.42256 -73.66390 32842 ft 470 kts 302°
2026-04-20 01:39 44.44419 -73.69810 32263 ft 469 kts 302°
2026-04-20 01:39 44.46581 -73.73234 31679 ft 469 kts 302°
2026-04-20 01:40 44.48711 -73.76600 31106 ft 468 kts 302°
2026-04-20 01:40 44.50898 -73.80060 30522 ft 468 kts 302°
2026-04-20 01:40 44.53021 -73.83430 29920 ft 467 kts 302°
2026-04-20 01:40 44.55188 -73.86871 29273 ft 462 kts 302°
2026-04-20 01:41 44.57308 -73.90235 28681 ft 458 kts 302°
2026-04-20 01:41 44.59374 -73.93523 28098 ft 453 kts 302°
2026-04-20 01:41 44.61445 -73.96827 27522 ft 449 kts 302°
2026-04-20 01:41 44.63495 -74.00099 26951 ft 444 kts 302°
2026-04-20 01:42 44.65528 -74.03343 26391 ft 439 kts 302°
2026-04-20 01:42 44.67535 -74.06553 25834 ft 435 kts 303°
2026-04-20 01:42 44.69519 -74.09729 25287 ft 430 kts 303°
2026-04-20 01:42 44.71424 -74.12930 24740 ft 420 kts 298°
2026-04-20 01:43 44.72963 -74.16347 24226 ft 409 kts 291°
2026-04-20 01:43 44.74182 -74.19899 23710 ft 401 kts 287°
2026-04-20 01:43 44.75349 -74.23437 23171 ft 397 kts 288°
2026-04-20 01:43 44.76523 -74.26921 22671 ft 392 kts 288°
2026-04-20 01:44 44.77672 -74.30378 22180 ft 387 kts 288°
2026-04-20 01:44 44.78795 -74.33799 21704 ft 384 kts 289°
2026-04-20 01:44 44.79916 -74.37192 21233 ft 380 kts 289°
2026-04-20 01:44 44.81027 -74.40547 20769 ft 376 kts 289°
2026-04-20 01:45 44.82126 -74.43874 20304 ft 373 kts 290°
2026-04-20 01:45 44.83210 -74.47170 19854 ft 369 kts 290°
2026-04-20 01:45 44.84284 -74.50436 19408 ft 366 kts 290°
2026-04-20 01:45 44.85346 -74.53667 18960 ft 362 kts 291°
2026-04-20 01:46 44.86399 -74.56874 18519 ft 358 kts 291°
2026-04-20 01:46 44.87437 -74.60042 18058 ft 354 kts 291°
2026-04-20 01:46 44.88464 -74.63173 17622 ft 350 kts 291°
2026-04-20 01:46 44.89462 -74.66232 17204 ft 345 kts 291°
2026-04-20 01:47 44.90241 -74.69400 16784 ft 339 kts 282°
2026-04-20 01:47 44.90649 -74.72692 16370 ft 334 kts 274°
2026-04-20 01:47 44.90688 -74.75904 15969 ft 330 kts 266°
2026-04-20 01:47 44.90380 -74.79101 15566 ft 328 kts 259°
2026-04-20 01:48 44.89881 -74.82217 15169 ft 324 kts 258°
2026-04-20 01:48 44.89408 -74.85313 14777 ft 321 kts 259°
2026-04-20 01:48 44.88938 -74.88373 14386 ft 318 kts 259°
2026-04-20 01:48 44.88465 -74.91406 14002 ft 315 kts 259°
2026-04-20 01:49 44.88053 -74.94422 13596 ft 311 kts 264°
2026-04-20 01:49 44.87969 -74.97454 13214 ft 309 kts 271°
2026-04-20 01:49 44.88194 -75.00460 12838 ft 308 kts 279°
2026-04-20 01:49 44.88685 -75.03396 12451 ft 307 kts 283°
2026-04-20 01:50 44.89181 -75.06251 12105 ft 288 kts 282°
2026-04-20 01:50 44.89628 -75.08893 11768 ft 267 kts 282°
2026-04-20 01:50 44.90050 -75.11360 11464 ft 251 kts 282°
2026-04-20 01:50 44.90455 -75.13721 11167 ft 246 kts 282°
2026-04-20 01:51 44.90857 -75.16065 10870 ft 246 kts 282°
2026-04-20 01:51 44.91258 -75.18413 10577 ft 247 kts 282°
2026-04-20 01:51 44.91661 -75.20766 10286 ft 247 kts 282°
2026-04-20 01:51 44.92061 -75.23118 9991 ft 247 kts 282°
2026-04-20 01:52 44.92463 -75.25472 9681 ft 247 kts 282°
2026-04-20 01:52 44.92859 -75.27809 9374 ft 246 kts 282°
2026-04-20 01:52 44.93259 -75.30152 9083 ft 245 kts 282°
2026-04-20 01:52 44.93655 -75.32492 8791 ft 245 kts 282°
2026-04-20 01:53 44.93993 -75.34015 8599 ft 247 kts 289°
2026-04-20 01:53 44.94845 -75.36254 8285 ft 244 kts 300°
2026-04-20 01:53 44.95946 -75.38121 7993 ft 249 kts 311°
2026-04-20 01:53 44.97319 -75.39670 7701 ft 256 kts 322°
2026-04-20 01:54 44.98922 -75.40801 7388 ft 261 kts 334°
2026-04-20 01:54 45.00693 -75.41442 7077 ft 265 kts 346°
2026-04-20 01:54 45.02520 -75.41819 6758 ft 265 kts 346°
2026-04-20 01:54 45.04334 -75.42235 6445 ft 264 kts 346°
2026-04-20 01:55 45.06133 -75.42637 6114 ft 256 kts 346°
2026-04-20 01:55 45.07793 -75.42992 5814 ft 227 kts 346°
2026-04-20 01:55 45.09268 -75.43319 5542 ft 204 kts 345°
2026-04-20 01:55 45.10620 -75.43625 5320 ft 192 kts 344°
2026-04-20 01:56 45.11929 -75.43925 5089 ft 190 kts 344°
2026-04-20 01:56 45.13208 -75.44220 4842 ft 188 kts 345°
2026-04-20 01:56 45.14497 -75.44505 4588 ft 186 kts 345°
2026-04-20 01:56 45.15774 -75.44789 4335 ft 185 kts 345°
2026-04-20 01:57 45.17042 -75.45070 4085 ft 184 kts 346°
2026-04-20 01:57 45.18303 -75.45350 3841 ft 183 kts 346°
2026-04-20 01:57 45.19554 -75.45640 3609 ft 180 kts 343°
2026-04-20 01:57 45.20688 -75.46305 3390 ft 176 kts 326°
2026-04-20 01:58 45.21635 -75.47384 3177 ft 174 kts 312°
2026-04-20 01:58 45.22358 -75.48764 2966 ft 174 kts 306°
2026-04-20 01:58 45.23087 -75.50127 2809 ft 173 kts 308°
2026-04-20 01:58 45.23805 -75.51501 2640 ft 173 kts 306°
2026-04-20 01:59 45.24516 -75.52888 2478 ft 174 kts 308°
2026-04-20 01:59 45.25245 -75.54252 2319 ft 174 kts 307°
2026-04-20 01:59 45.25940 -75.55635 2165 ft 168 kts 307°
2026-04-20 01:59 45.26615 -75.56891 1932 ft 150 kts 308°
2026-04-20 02:00 45.27204 -75.58057 1737 ft 143 kts 306°
2026-04-20 02:00 45.27800 -75.59175 1520 ft 144 kts 308°
2026-04-20 02:00 45.28394 -75.60337 1322 ft 147 kts 306°
2026-04-20 02:00 45.28989 -75.61463 1104 ft 137 kts 307°
2026-04-20 02:01 45.29527 -75.62487 943 ft 116 kts 304°
2026-04-20 02:01 45.29982 -75.63405 774 ft 115 kts 303°
2026-04-20 02:01 45.30467 -75.64316 620 ft 116 kts 306°
2026-04-20 02:01 45.30944 -75.65233 466 ft 116 kts 303°
2026-04-20 02:02 45.31383 -75.66099 371 ft 93 kts 307°
2026-04-20 02:02 45.31600 -75.66512 366 ft 30 kts 307°
2026-04-20 02:02 45.31706 -75.66686 367 ft 15 kts 327°
2026-04-20 02:02 45.31787 -75.66615 371 ft 16 kts 56°
2026-04-20 02:03 45.31857 -75.66458 371 ft 25 kts 58°
2026-04-20 02:03 45.31997 -75.66152 370 ft 49 kts 57°
2026-04-20 02:03 45.32198 -75.65701 370 ft 52 kts 57°
2026-04-20 02:03 45.32348 -75.65364 371 ft 19 kts 55°
2026-04-20 02:04 45.32423 -75.65335 373 ft 12 kts 289°
2026-04-20 02:04 45.32449 -75.65440 379 ft 9 kts 291°
2026-04-20 02:04 45.32472 -75.65521 383 ft 11 kts 292°
2026-04-20 02:04 45.32519 -75.65682 390 ft 14 kts 292°
2026-04-20 02:05 45.32506 -75.65778 389 ft 11 kts 218°
2026-04-20 02:05 45.32481 -75.65819 388 ft 0 kts 240°